Printer-friendly version
Follow the MPC on Twitter Follow the MPC on Facebook The MPC blog
Minor Planet Center

MPEC 2010-P59 : 2010 PO58

The following Minor Planet Electronic Circular may be linked-to from your own Web pages, but must not otherwise be redistributed electronically.

A form allowing access to any MPEC is at the bottom of this page.


Read MPEC 2010-P58 Read MPEC 2010-P60


M.P.E.C. 2010-P59                                Issued 2010 Aug. 13, 17:14 UT

     The Minor Planet Electronic Circulars contain information on unusual
         minor planets and routine data on comets.  They are published
   on behalf of Commission 20 of the International Astronomical Union by the
          Minor Planet Center, Smithsonian Astrophysical Observatory,
                          Cambridge, MA 02138, U.S.A.

             Prepared using the Tamkin Foundation Computer Network

                              MPC@CFA.HARVARD.EDU
       URL http://www.minorplanetcenter.org/iau/mpc.html  ISSN 1523-6714

                                   2010 PO58

Observations:
     K10P58O* S2010 08 05.84037 16 14 22.30 +37 37 35.8          21   R EP059C51
     K10P58O  s2010 08 05.84037 1 - 4355.6494 - 3055.0227 + 4395.4196   EP059C51
     K10P58O  S2010 08 05.97267 16 14 15.32 +37 35 41.2                 EP059C51
     K10P58O  s2010 08 05.97267 1 - 4347.8384 - 3064.2576 + 4396.8186   EP059C51
     K10P58O  S2010 08 06.10497 16 14 08.95 +37 33 57.9                 EP059C51
     K10P58O  s2010 08 06.10497 1 - 4340.4149 - 3073.8968 + 4397.0065   EP059C51
     K10P58O  S2010 08 06.17106 16 14 05.91 +37 33 01.0                 EP059C51
     K10P58O  s2010 08 06.17106 1 - 4354.0343 - 3099.2792 + 4365.6586   EP059C51
     K10P58O  S2010 08 06.23728 16 14 02.40 +37 32 08.1                 EP059C51
     K10P58O  s2010 08 06.23728 1 - 4332.9873 - 3082.7281 + 4398.1536   EP059C51
     K10P58O  S2010 08 06.30337 16 13 59.14 +37 31 12.3                 EP059C51
     K10P58O  s2010 08 06.30337 1 - 4346.3479 - 3107.9970 + 4367.2628   EP059C51
     K10P58O  S2010 08 06.36945 16 13 55.74 +37 30 17.9                 EP059C51
     K10P58O  s2010 08 06.36945 1 - 4359.4729 - 3133.3634 + 4336.1842   EP059C51
     K10P58O  S2010 08 06.36958 16 13 55.79 +37 30 16.7                 EP059C51
     K10P58O  s2010 08 06.36958 1 - 4325.1646 - 3091.4976 + 4399.9262   EP059C51
     K10P58O  S2010 08 06.50176 16 13 49.17 +37 28 28.3                 EP059C51
     K10P58O  s2010 08 06.50176 1 - 4351.8315 - 3142.8567 + 4337.2755   EP059C51
     K10P58O  S2010 08 06.63406 16 13 42.63 +37 26 36.8                 EP059C51
     K10P58O  s2010 08 06.63406 1 - 4344.5184 - 3152.3037 + 4337.4854   EP059C51
     K10P58O  S2010 08 06.70028 16 13 39.27 +37 25 42.4                 EP059C51
     K10P58O  s2010 08 06.70028 1 - 4323.6507 - 3135.7509 + 4370.0376   EP059C51
     K10P58O  S2010 08 06.76637 16 13 36.17 +37 24 47.7                 EP059C51
     K10P58O  s2010 08 06.76637 1 - 4336.4925 - 3161.0640 + 4339.0812   EP059C51
     K10P58O  S2010 08 06.83258 16 13 32.95 +37 23 52.3                 EP059C51
     K10P58O  s2010 08 06.83258 1 - 4315.4379 - 3144.3938 + 4371.9515   EP059C51
     K10P58O  S2010 08 06.89867 16 13 29.56 +37 22 58.5                 EP059C51
     K10P58O  s2010 08 06.89867 1 - 4328.4123 - 3169.8187 + 4340.9430   EP059C51
     K10P58O  S2010 08 06.96476 16 13 26.31 +37 22 03.2                 EP059C51
     K10P58O  s2010 08 06.96476 1 - 4340.9439 - 3195.3430 + 4309.6364   EP059C51
     K10P58O  S2010 08 06.96488 16 13 26.47 +37 22 03.3                 EP059C51
     K10P58O  s2010 08 06.96488 1 - 4307.3139 - 3153.3073 + 4373.6669   EP059C51
     K10P58O  S2010 08 07.09706 16 13 19.91 +37 20 12.3                 EP059C51
     K10P58O  s2010 08 07.09706 1 - 4333.1084 - 3204.8936 + 4309.9941   EP059C51
     K10P58O  S2010 08 07.22937 16 13 13.43 +37 18 22.8                 EP059C51
     K10P58O  s2010 08 07.22937 1 - 4325.3437 - 3213.6537 + 4311.2389   EP059C51
     K10P58O  C2010 08 11.18634 16 10 14.98 +36 23 35.3          21.5 V EP059691
     K10P58O  C2010 08 11.19425 16 10 14.63 +36 23 28.9          21.6 V EP059691
     K10P58O  C2010 08 11.20047 16 10 14.33 +36 23 23.5          22.0 V EP059691
     K10P58O KC2010 08 12.09180816 09 37.74 +36 11 03.2          22.1 V EP059H21
     K10P58O KC2010 08 12.11175416 09 36.90 +36 10 48.0                 EP059H21
     K10P58O KC2010 08 12.13352216 09 36.05 +36 10 29.6          21.7 V EP059H21

Observer details:
691 Steward Observatory, Kitt Peak.  Observer T. H. Bressi.  0.9-m f/3
    reflector + CCD.
C51 WISE.  Measurers A. K. Mainzer, E. L. Wright, J. M. Bauer, T. Grav,
    J. W. Dailey, J. R. Masiero, R. M. Cutri, R. S. McMillan,
    R. G. Walker. (http://wise.ssl.berkeley.edu/mission_sci.html).
H21 Astronomical Research Observatory, Westfield.  Observer R. Holmes.
    Measurers R. Holmes, S. Foglia.  0.81-m f/4.5 astrograph + CCD.

Orbital elements:
2010 PO58
Epoch 2010 July 23.0 TT = JDT 2455400.5                 MPC
M  16.27604              (2000.0)            P               Q
n   0.03779705     Peri.   28.13861     +0.91490850     -0.33609602
a   8.7935480      Node    15.14236     -0.16523770     -0.81714615
e   0.6591921      Incl.  121.14510     +0.36829191     +0.46830720
P  26.08           H   14.5           G   0.15           U   8
Residuals in seconds of arc
100805 C51  0.5-  0.1+    100806 C51  0.1+  1.2+    100807 C51  0.4-  0.7-
100805 C51 (3.9-  4.8-)   100806 C51  0.1+  0.6-    100807 C51  1.1-  0.4-
100806 C51  0.3-  1.6+    100806 C51  1.0-  0.0     100811 691  0.2+  0.2-
100806 C51  3.0+  0.5-    100806 C51  0.8+  0.2+    100811 691  0.0   0.0
100806 C51  0.7+  1.6+    100806 C51  1.2+  0.3-    100811 691  0.4-  0.2-
100806 C51  1.2+  0.6+    100806 C51  0.6-  0.8+    100812 H21  0.2+  0.4-
100806 C51  0.0   1.0+    100806 C51  0.9-  0.3+    100812 H21  0.1-  1.0+
100806 C51  0.6+  0.1-    100806 C51  1.1+  0.6+    100812 H21  0.4+  0.8+

Ephemeris:
2010 PO58                a,e,i = 8.79, 0.66, 121                 q = 2.9969
Date    TT    R. A. (2000) Decl.     Delta      r     Elong.  Phase     V
2010 08 12    16 09.69   +36 12.3    4.417    4.526    89.7    12.9    21.8
2010 08 22    16 04.17   +33 55.5    4.578    4.576    83.6    12.7    21.9
2010 09 01    16 00.88   +31 43.8    4.743    4.627    77.3    12.3    21.9
2010 09 11    15 59.45   +29 40.0    4.906    4.677    71.1    11.7    22.0
2010 09 21    15 59.55   +27 45.9    5.065    4.728    64.9    11.1    22.1

Sonia Keys                   (C) Copyright 2010 MPC           M.P.E.C. 2010-P59

Read MPEC 2010-P58 Read MPEC 2010-P60


MPEC number:

Enter an MPEC number in one of the following forms:

  • 1997-B01 (the full form)
  • J97B01 (the packed version of the full form)
  • B01 (the abbreviated form)

Valid HTML 4.01!